Location: Im Fang
(46.6019°N, 7.2397°E)
Time: 09:31:44
(UTC+00:00)

STARLINK 1063 - Pass Details

Date: 08 December 2019
Orbit: 548 x 551 km, 53.0° (Epoch: 17 January)

Event Time Altitude Azimuth Distance (km) Brightness Sun altitude
Exits shadow 05:27:22 28° 297° (WNW) 1,059 4.5 -15.5°
Maximum altitude 05:29:30 84° 213° (SSW) 568 3.6 -15.2°
Drops below altitude 10° 05:33:42 10° 124° (SE) 1,844 7.5 -14.5°
Sets 05:35:56 0° 124° (SE) 2,736 8.8 -14.1°
